Погода в Куликах

Россия / Тюменская область     56°55′21″N   66°38′57″E
темп.,
°C
ветер,
м/с
пор.,
м/с
влажн.,
%
обл.,
%
осадки,
мм/ч
давл.,
гПа
погр.,
м
13 апреля, вт
вт1323:00+4с22760 0.0 103715
02:00+3ссз11765 0.0 103810
05:00+2зсз22860 0.0 103912
08:00+5зсз23760 0.0 1040171
11:00+10з35555 0.0 1040899
14:00+12з354156 0.0 10391180
17:00+13зюз46465 0.0 1037889
20:00+8юз387119 0.0 1036140
14 апреля, ср
ср1423:00+6юз311817 0.0 1035211
02:00+7юз4148582 0.0 1033362
05:00+6юз51491100 0.0 1032416
08:00+8юз51287100 0.0 1031431
11:00+13зюз586899 0.0 1029685
14:00+17з585722 0.0 10281138
17:00+18зсз475696 0.0 10271280
20:00+12з22775 0.0 102619
15 апреля, чт
чт1523:00+10зюз278864 0.0 1026128
02:00+8з28886 0.0 1026144
05:00+7зюз25885 0.0 102584
08:00+10зюз387411 0.0 1025251
11:00+16зюз475231 0.0 1023818
14:00+19зюз57426 0.0 10211289
17:00+19зюз58525 0.0 10191500
20:00+15зюз411685 0.0 1017274
16 апреля, пт
пт1623:00+12юз4127843 0.0 1016290
02:00+9зюз3981100 0.0 1015186
05:00+8з2880100 0.0 1014168
08:00+8ссв4787100 0.0 1015548
11:00+4с5994100 1.2 1018640
14:00+6ссв487299 0.9 10191160
17:00+7ссв4851100 0.9 10201751
20:00+4ссв510575 0.0 1022614
17 апреля, сб
сб1723:00+1ссв410615 0.0 1023488
02:00−2ссв37715 0.0 1024252
05:00−2св24773 0.0 1024167
08:000ссв01500 0.0 1024496
11:00+4з233799 0.0 10221158
14:00+5з3531100 0.0 10201822
17:00+4зсз4765100 0.2 10191101
20:000св488471 0.7 1020428